FW6569 Weather Reports


time (UTC)temp
C
wind
direction
speed
KPH
gust
KPH
rain 1hr
cm
rain 24hr
cm
rain mn
cm
humidity
%
barometer
mb
20260905204527 35 247 3.2 8.0 0.00 0.00 0.00 52 1013.1
20260905203526 35 332 4.8 8.0 0.00 0.00 0.00 52 1013.1
20260905202526 35 229 6.4 11.3 0.00 0.00 0.00 56 1013.2
20260905201526 34 211 8.0 12.9 0.00 0.00 0.00 53 1013.4
20260905200526 34 217 9.7 12.9 0.00 0.00 0.00 53 1013.5
20260905195546 34 210 6.4 12.9 0.00 0.00 0.00 52 1013.6
20260905194526 34 235 8.0 14.5 0.00 0.00 0.00 54 1013.6
20260905193526 33 210 4.8 9.7 0.00 0.00 0.00 53 1013.8
20260905192526 33 220 8.0 11.3 0.00 0.00 0.00 55 1013.9
20260905191526 33 205 6.4 9.7 0.00 0.00 0.00 55 1014.0
20260905190526 32 217 9.7 16.1 0.00 0.00 0.00 58 1014.1
20260905185526 32 220 9.7 12.9 0.00 0.00 0.00 57 1014.2
20260905184526 32 207 8.0 11.3 0.00 0.00 0.00 58 1014.4
20260905183526 32 212 11.3 19.3 0.00 0.00 0.00 58 1014.5
20260905182526 32 215 8.0 12.9 0.00 0.00 0.00 58 1014.6
20260905181546 32 227 8.0 16.1 0.00 0.00 0.00 58 1014.5
20260905180526 31 205 11.3 16.1 0.00 0.00 0.00 59 1014.6
20260905175526 31 212 9.7 16.1 0.00 0.00 0.00 59 1014.6
20260905174526 31 205 11.3 16.1 0.00 0.00 0.00 58 1014.7
20260905173526 31 190 9.7 14.5 0.00 0.00 0.00 59 1014.8
20260905172547 31 203 9.7 16.1 0.00 0.00 0.00 58 1015.0
20260905171526 31 205 8.0 12.9 0.00 0.00 0.00 58 1015.2
20260905170526 31 218 6.4 11.3 0.00 0.00 0.00 57 1015.4
20260905165526 31 207 4.8 8.0 0.00 0.00 0.00 58 1015.7
20260905164526 30 167 8.0 12.9 0.00 0.00 0.00 58 1015.7
20260905163607 30 239 4.8 12.9 0.00 0.00 0.00 58 1015.9
20260905162526 29 217 9.7 14.5 0.00 0.00 0.00 60 1015.8
20260905161526 30 188 9.7 12.9 0.00 0.00 0.00 60 1015.9
20260905160528 30 216 8.0 12.9 0.00 0.00 0.00 60 1015.8
20260905155526 30 186 6.4 9.7 0.00 0.00 0.00 59 1015.8
20260905154607 30 180 8.0 12.9 0.00 0.00 0.00 59 1015.7
20260905153526 30 195 6.4 9.7 0.00 0.00 0.00 58 1015.8
20260905152526 28 174 3.2 8.0 0.00 0.00 0.00 60 1015.7
20260905151527 28 194 9.7 14.5 0.00 0.00 0.00 61 1015.7
20260905150526 28 167 6.4 9.7 0.00 0.00 0.00 60 1015.7
20260905145526 28 126 6.4 9.7 0.00 0.00 0.00 61 1015.7
20260905144547 27 140 6.4 14.5 0.00 0.00 0.00 62 1015.7
20260905143527 27 141 9.7 14.5 0.00 0.00 0.00 63 1015.7
20260905142708 27 119 8.0 16.1 0.00 0.00 0.00 63 1015.8
20260905141527 26 99 9.7 14.5 0.00 0.00 0.00 67 1015.9
20260905140526 26 118 6.4 12.9 0.00 0.00 0.00 69 1016.1
20260905135526 25 115 11.3 16.1 0.00 0.00 0.00 70 1016.1
20260905134526 25 87 8.0 14.5 0.00 0.00 0.00 70 1016.4
20260905133547 25 125 8.0 12.9 0.00 0.00 0.00 73 1016.6
20260905132527 24 100 8.0 12.9 0.00 0.00 0.00 74 1016.8
20260905131547 23 103 8.0 14.5 0.00 0.00 0.00 77 1016.6
20260905130527 23 111 9.7 14.5 0.00 0.00 0.00 79 1016.7
20260905125527 22 90 8.0 12.9 0.00 0.00 0.00 82 1016.8
20260905124527 22 109 6.4 11.3 0.00 0.00 0.00 83 1016.7
20260905123527 22 99 9.7 12.9 0.00 0.00 0.00 83 1016.9
20260905122527 22 58 6.4 9.7 0.00 0.00 0.00 84 1017.0
20260905121547 21 77 9.7 14.5 0.00 0.00 0.00 85 1016.8
20260905120527 21 69 8.0 11.3 0.00 0.00 0.00 85 1016.7
20260905115527 21 90 9.7 14.5 0.00 0.00 0.00 84 1016.8
20260905114547 22 76 9.7 14.5 0.00 0.00 0.00 83 1016.7
20260905113527 22 73 9.7 14.5 0.00 0.00 0.00 83 1016.7
20260905112547 22 58 6.4 9.7 0.00 0.00 0.00 83 1016.7
20260905111527 22 32 14.5 19.3 0.00 0.00 0.00 83 1016.6
20260905110547 22 14 11.3 16.1 0.00 0.00 0.00 84 1016.4
20260905105547 22 21 20.9 30.6 0.00 0.00 0.00 84 1016.2
20260905104547 22 22 27.4 43.5 0.00 0.00 0.00 92 1015.8
20260905103547 22 11 8.0 27.4 0.00 0.00 0.00 99 1015.1
20260905102527 21 0.0 0.0 0.00 0.00 0.00 99 1014.8
20260905101527 21 0.0 0.0 0.00 0.00 0.00 99 1014.8
20260905100547 21 0.0 0.0 0.00 0.00 0.00 99 1014.9
20260905095528 21 0.0 0.0 0.00 0.00 0.00 99 1014.9
20260905094527 21 0.0 0.0 0.00 0.00 0.00 99 1014.9
20260905093527 22 0.0 0.0 0.00 0.00 0.00 99 1014.7
20260905092527 22 0.0 0.0 0.00 0.00 0.00 99 1014.7
20260905091607 22 0.0 0.0 0.00 0.00 0.00 99 1014.5
20260905090527 22 0.0 0.0 0.00 0.00 0.00 99 1014.5
20260905085527 22 0.0 0.0 0.00 0.00 0.00 99 1014.5
20260905084527 22 0.0 0.0 0.00 0.00 0.00 99 1014.6
20260905083527 22 0.0 0.0 0.00 0.00 0.00 99 1014.5
20260905082527 22 0.0 0.0 0.00 0.00 0.00 99 1014.5
20260905081548 22 0.0 0.0 0.00 0.00 0.00 98 1014.3
20260905080527 22 0.0 0.0 0.00 0.00 0.00 98 1014.2
20260905075528 22 0.0 0.0 0.00 0.00 0.00 98 1014.0
20260905074527 22 0.0 0.0 0.00 0.00 0.00 98 1013.9
20260905073527 22 0.0 0.0 0.00 0.00 0.00 98 1013.9
20260905072527 22 0.0 0.0 0.00 0.00 0.00 98 1013.9
20260905071527 22 0.0 0.0 0.00 0.00 0.00 98 1014.0
20260905070527 22 0.0 0.0 0.00 0.00 0.00 98 1014.2
20260905065548 22 0.0 0.0 0.00 0.00 0.00 98 1014.4
20260905064527 22 0.0 0.0 0.00 0.00 0.00 98 1014.5
20260905063528 22 0.0 0.0 0.00 0.00 0.00 98 1014.6
20260905062527 22 0.0 0.0 0.00 0.00 0.00 98 1014.7
20260905061528 22 0.0 0.0 0.00 0.00 0.00 98 1014.8
20260905060548 22 0.0 0.0 0.00 0.00 0.00 98 1014.9
20260905055528 22 0.0 0.0 0.00 0.00 0.00 98 1015.0
20260905054528 22 0.0 0.0 0.00 0.00 0.00 98 1015.0
20260905053528 22 0.0 0.0 0.00 0.00 0.00 98 1015.1
20260905052548 22 0.0 0.0 0.00 0.00 0.00 97 1015.3
20260905051528 22 0.0 0.0 0.00 0.00 0.00 97 1015.4
20260905050528 22 0.0 0.0 0.00 0.00 0.00 97 1015.5
20260905045528 22 0.0 0.0 0.00 0.00 0.00 97 1015.5
20260905044549 22 0.0 0.0 0.00 0.00 0.00 97 1015.6
20260905043528 22 0.0 0.0 0.00 0.00 0.00 96 1015.6
20260905042528 22 0.0 0.0 0.00 0.00 0.00 96 1015.6
20260905041528 22 0.0 0.0 0.00 0.00 0.00 96 1015.5
20260905040528 23 0.0 0.0 0.00 0.00 0.00 96 1015.6
20260905035549 23 0.0 0.0 0.00 0.00 0.00 95 1015.6
20260905034528 23 0.0 0.0 0.00 0.00 0.00 95 1015.6
20260905033528 23 0.0 0.0 0.00 0.00 0.00 95 1015.6
20260905032528 23 0.0 0.0 0.00 0.00 0.00 95 1015.6
20260905031548 23 0.0 0.0 0.00 0.00 0.00 94 1015.5
20260905030528 23 0.0 0.0 0.00 0.00 0.00 94 1015.5
20260905025548 23 0.0 0.0 0.00 0.00 0.00 94 1015.5
20260905024528 23 0.0 0.0 0.00 0.00 0.00 93 1015.6
20260905023528 23 0.0 0.0 0.00 0.00 0.00 93 1015.6
20260905022528 23 0.0 0.0 0.00 0.00 0.00 93 1015.6
20260905021528 24 0.0 0.0 0.00 0.00 0.00 92 1015.5
20260905020528 24 0.0 0.0 0.00 0.00 0.00 91 1015.5
20260905015528 24 0.0 0.0 0.00 0.00 0.00 90 1015.4
20260905014528 25 0.0 0.0 0.00 0.00 0.00 90 1015.3
20260905013528 25 0.0 0.0 0.00 0.00 0.00 90 1015.2
20260905012528 25 0.0 0.0 0.00 0.00 0.00 88 1015.1
20260905011528 25 0.0 0.0 0.00 0.00 0.00 87 1015.1
20260905010528 25 0.0 0.0 0.00 0.00 0.00 86 1015.1
20260905005528 26 0.0 0.0 0.00 0.00 0.00 86 1015.1
20260905004528 26 7 1.6 4.8 0.00 0.00 0.00 85 1015.1
20260905003528 26 356 3.2 4.8 0.00 0.00 0.00 84 1014.9
20260905002548 26 8 3.2 4.8 0.00 0.00 0.00 84 1014.9
20260905001529 27 8 4.8 6.4 0.00 0.00 0.00 82 1015.0
20260905000549 27 11 4.8 6.4 0.00 0.00 0.00 81 1014.9
20260904235548 27 8 4.8 6.4 0.00 0.00 0.00 80 1014.8
20260904234528 28 7 3.2 4.8 0.00 0.00 0.00 79 1014.7
20260904233548 28 354 0.0 1.6 0.00 0.00 0.00 77 1014.5
20260904232518 29 14 0.0 3.2 0.00 0.00 0.00 75 1014.5
20260904231518 30 7 3.2 6.4 0.00 0.00 0.00 72 1014.6
20260904230518 30 34 4.8 6.4 0.00 0.00 0.00 70 1014.7
20260904225519 30 26 4.8 8.0 0.00 0.00 0.00 70 1014.7
20260904224519 31 25 6.4 9.7 0.00 0.00 0.00 68 1014.8
20260904223518 32 71 8.0 11.3 0.00 0.00 0.00 66 1014.8
20260904222548 32 43 6.4 6.4 0.00 0.00 0.00 65 1014.6
20260904221629 32 62 8.0 9.7 0.00 0.00 0.00 65 1014.7
20260904220529 35 77 8.0 11.3 0.00 0.00 0.00 57 1014.9
20260904215519 36 225 3.2 4.8 0.00 0.00 0.00 55 1015.0
20260904214519 36 214 6.4 8.0 0.00 0.00 0.00 52 1014.9
20260904213519 37 254 4.8 6.4 0.00 0.00 0.00 50 1015.1
20260904212519 36 282 3.2 4.8 0.00 0.00 0.00 51 1015.1
20260904211519 36 329 3.2 8.0 0.00 0.00 0.00 50 1015.2
20260904210519 36 242 3.2 8.0 0.00 0.00 0.00 52 1015.4
20260904205519 36 258 3.2 6.4 0.00 0.00 0.00 51 1015.4